User: anonymous   Login
Location: Krasnoyarskiy Pitomnik
(51.1333°N, 71.6167°E)
Time: 13:09:34
(UTC+00:00)
Language:

NOSS 2-2 (C) - Orbit

View from above orbital plane
View from above orbital plane
View from above satellite
View from above satellite

Ground track
Ground track

The orbit data is extracted from the following two-line orbital elements,

1 21799U 91076C   22271.76452846 0.00002700  00000-0  35957-3 0    01
2 21799  63.3157 138.6166 0891427  50.8688 309.1312 13.42690757    05
Epoch (UTC): 28 September 2022 18:20:55
Eccentricity: 0.0891427
inclination: 63.3157°
perigee height: 433 km
apogee height: 1766 km
right ascension of ascending node: 138.6166°
argument of perigee: 50.8688°
revolutions per day: 13.42690757
mean anomaly at epoch: 309.1312°
orbit number at epoch: 0

The dashed part of the orbit path shows where the satellite is in the earth's shadow,  

DLR